Regional Weather Roundup
Issued by NWS Sterling, VA

Home | Current Version | Previous Version | Graphics & Text | Print | Product List | Glossary On
Versions: 1 2 3 4 5 6 7 8 9 10 11 12 13 14 15 16 17 18 19 20 21 22 23 24 25 26 27 28 29 30 31 32 33 34 35 36 37 38 39 40 41 42 43 44 45 46 47 48 49 50
000
ASUS41 KLWX 060810
RWRLWX

REGIONAL WEATHER ROUNDUP
NATIONAL WEATHER SERVICE BALTIMORE MD/WASHINGTON DC
300 AM EST SAT FEB 06 2016

Note: "FAIR" indicates few or no clouds below 12,000 feet
with no significant weather and/or obstructions to visibility.
 TC=TEMPERATURE CELSIUS

 * =Non NWS site. Station does not report precipitation (e.g. rain,
    snow, etc.), thunder, or fog.

DCZ001-MDZ009-015-VAZ040>042-051-053>054-060900-
WASHINGTON METRO

CITY           SKY/WX    TMP DP  RH WIND       PRES   REMARKS
WASHINGTON NAT FAIR      31  21  66 SW5       30.43R
DULLES         MOCLDY    24  19  81 S3        30.41R
ANDREWS AFB    CLOUDY    26  21  82 S2        30.40R
FT BELVOIR     FAIR      24  21  87 CALM      30.42R
QUANTICO       FAIR      28  23  81 NW6       30.44R
COLLEGE PARK*  FAIR      27  23  86 CALM      30.42R
LEESBURG*      FAIR      28  27  93 S3        30.41S
MANASSAS*      FAIR      21  21 100 CALM      30.42S
GAITHERSBURG*  CLOUDY    25  16  68 CALM      30.43R

$$

MDZ006>007-011-014-060900-
BALTIMORE METRO

CITY           SKY/WX    TMP DP  RH WIND       PRES   REMARKS
BWI AIRPORT    CLOUDY    24  20  84 SW3       30.41R
MD SCIENCE CTR   N/A     32  19  58 MISG      30.41R
MARTIN STATE   CLOUDY    28  25  86 CALM      30.43S
ANNAPOLIS      CLOUDY    29  23  78 CALM      30.41S
FORT MEADE*    CLOUDY    23  23 100 CALM      30.43S

$$

MDZ012-015-019>023-060900-
MARYLAND EASTERN SHORE

CITY           SKY/WX    TMP DP  RH WIND       PRES   REMARKS
OCEAN CITY     CLOUDY    29  22  75 NW5       30.41R
SALISBURY      CLOUDY    27  25  92 CALM      30.41R
BAY BRIDGE AP*   N/A     32  23  69 CALM      30.42S
CAMBRIDGE*     PTCLDY    30  25  80 CALM      30.42R
EASTON*        PTCLDY    28  25  86 CALM      30.45R

$$

MDZ017>025-060900-
SOUTHERN MARYLAND

CITY           SKY/WX    TMP DP  RH WIND       PRES   REMARKS
PATUXENT RIVER PTCLDY    27  20  75 NW6       30.42R
ST INIGOES     PTCLDY    27  23  85 CALM      30.42R
LEONARDTOWN*   PTCLDY    27  23  86 CALM      30.43S

$$

MDZ003>005-060900-
NORTH CENTRAL MARYLAND

CITY           SKY/WX    TMP DP  RH WIND       PRES   REMARKS
FREDERICK*     CLOUDY    27  25  93 CALM      30.43S
HAGERSTOWN APT CLOUDY    28  17  63 S3        30.36F
WESTMINSTER*   CLOUDY    27  21  80 CALM      30.36S

$$

MDZ501>502-060900-
WESTERN MARYLAND

CITY           SKY/WX    TMP DP  RH WIND       PRES   REMARKS
OAKLAND*       CLOUDY    21  14  73 SW7       30.25S
CUMBERLAND*    CLOUDY    25  21  86 CALM      30.41S

$$

VAZ025>031-060900-
SHENANDOAH VALLEY

CITY           SKY/WX    TMP DP  RH WIND       PRES   REMARKS
WINCHESTER*    FAIR      27  19  74 CALM      30.38R
FRONT ROYAL*   FAIR      27  19  74 S6        30.38R
LURAY*         FAIR      25  19  80 CALM      30.38S
NEW MARKET*    FAIR      23  19  87 W3        30.38R
STAUNTON*      FAIR      27  22  80 CALM      30.40R
WAYNESBORO*    FAIR      22  16  78 CALM      30.36S

$$

WVZ021-048>050-054>055-060900-
EASTERN WEST VIRGINIA PANHANDLE

CITY           SKY/WX    TMP DP  RH WIND       PRES   REMARKS
MARTINSBURG    FAIR      21  16  81 SW3       30.38S
PETERSBURG*    FAIR      23  19  85 CALM      30.39S

$$

VAZ036>039-050-060900-
CENTRAL FOOTHILLS

CITY           SKY/WX    TMP DP  RH WIND       PRES   REMARKS
CHARLOTTESVILL FAIR      27  18  69 CALM      30.40R
CULPEPER*      FAIR      22  19  90 CALM      30.43R
ORANGE*        FAIR      25  23  93 CALM      30.43R
GORDONSVILLE*  FAIR      24  22  92 CALM      30.42R
WARRENTON*     FAIR      23  23  98 CALM      30.41S

$$

VAZ055>057-060900-
NORTH AND CENTRAL PIEDMONT

CITY           SKY/WX    TMP DP  RH WIND       PRES   REMARKS
FREDERICKSBRG* FAIR      25  22  88 CALM      30.43R
STAFFORD*      FAIR      21  20  93 CALM      30.46S

$$

NCZ024-NYZ072-PAZ021-071-VAZ022-071-060900-
OTHER REGIONAL OBSERVATIONS

CITY           SKY/WX    TMP DP  RH WIND       PRES   REMARKS
NEW YORK CITY  CLEAR     31  16  54 VRB3      30.37F
PHILADELPHIA   CLOUDY    29  20  69 W5        30.39S
PITTSBURGH     CLOUDY    28  17  63 S5        30.29S
ROANOKE        FAIR      27  17  66 CALM      30.40S
RICHMOND       FAIR      26  23  88 CALM      30.42S
RALEIGH        CLOUDY    28  23  81 CALM      30.41R

$$

ANZ530>537-060900-
MARINE OBSERVATIONS

STATION/POSITION TIME  TEMP    WIND        PRES
                       AIR SEA DIR/SP/G
                 (UTC) (F)     (DEG/KT/KT) (MB)
THOMAS PT LIGHT  0800   33 39  310/  5/  5 1030.8R
BALT KEY BRIDGE  0700   33     230/  4/  5 1029.8R
COVE POINT       0700   36     360/  9/ 12 1030.3R
LEWISETTA        0700   36 42   10/  5/  7 1029.6R
SOLOMONS ISLAND  0700   34 41  320/  3/  4   N/A

$$




USA.gov is the U.S. government's official web portal to all federal, state and local government web resources and services.